PAL1875 RPLL-RPMZ

Flight info

Callsign PAL1875
Flight time N/A
Altitude 35000
Route VERDE2R VERDE A461 TINDO TINDO1W
Aircraft A321/M-SDE3FGHIRWY/LB1

Departure

Time N/A
Airport Ninoy Aquino International Airport (RPLL)

Arrival

Time 2026-04-26 05:10
Airport Zamboanga International Airport (RPMZ)
Time Latitude Longitude Altitude Speed Heading
2026-04-26 04:42 9.19447 121.63733 34859 ft 440 kts 170°
2026-04-26 04:42 9.13388 121.64857 34860 ft 441 kts 170°
2026-04-26 04:43 9.07350 121.65971 34854 ft 441 kts 170°
2026-04-26 04:43 9.01266 121.67091 34852 ft 441 kts 171°
2026-04-26 04:44 8.95234 121.68203 34860 ft 440 kts 171°
2026-04-26 04:44 8.89180 121.69319 34853 ft 440 kts 170°
2026-04-26 04:45 8.83134 121.70431 34849 ft 439 kts 171°
2026-04-26 04:45 8.77065 121.71549 34846 ft 440 kts 170°
2026-04-26 04:46 8.71023 121.72662 34845 ft 440 kts 170°
2026-04-26 04:46 8.64960 121.73782 34843 ft 440 kts 170°
2026-04-26 04:47 8.58921 121.74896 34828 ft 440 kts 170°
2026-04-26 04:47 8.55892 121.75454 34274 ft 441 kts 170°
2026-04-26 04:47 8.52877 121.76009 33643 ft 438 kts 170°
2026-04-26 04:47 8.49898 121.76556 33009 ft 435 kts 169°
2026-04-26 04:48 8.43964 121.77652 31799 ft 431 kts 169°
2026-04-26 04:48 8.40988 121.78201 31072 ft 433 kts 169°
2026-04-26 04:48 8.38020 121.78750 30366 ft 434 kts 169°
2026-04-26 04:49 8.35043 121.79300 29852 ft 430 kts 169°
2026-04-26 04:49 8.32074 121.79848 29356 ft 427 kts 169°
2026-04-26 04:49 8.29175 121.80383 28864 ft 423 kts 169°
2026-04-26 04:49 8.26290 121.80915 28366 ft 420 kts 169°
2026-04-26 04:50 8.23415 121.81444 27880 ft 417 kts 169°
2026-04-26 04:50 8.20551 121.81971 27392 ft 413 kts 169°
2026-04-26 04:50 8.17744 121.82488 26919 ft 410 kts 169°
2026-04-26 04:50 8.14935 121.83006 26438 ft 407 kts 169°
2026-04-26 04:51 8.12151 121.83518 25964 ft 405 kts 168°
2026-04-26 04:51 8.09356 121.84034 25480 ft 402 kts 168°
2026-04-26 04:51 8.06577 121.84547 24990 ft 400 kts 168°
2026-04-26 04:51 8.03857 121.85047 24517 ft 398 kts 168°
2026-04-26 04:52 8.01145 121.85548 24049 ft 396 kts 168°
2026-04-26 04:52 7.98435 121.86048 23583 ft 393 kts 168°
2026-04-26 04:52 7.95723 121.86547 23119 ft 391 kts 168°
2026-04-26 04:52 7.93030 121.87042 22654 ft 390 kts 168°
2026-04-26 04:53 7.90380 121.87529 22189 ft 389 kts 168°
2026-04-26 04:53 7.87690 121.88023 21739 ft 387 kts 168°
2026-04-26 04:53 7.85043 121.88509 21300 ft 386 kts 167°
2026-04-26 04:53 7.82373 121.89011 20860 ft 385 kts 167°
2026-04-26 04:54 7.79721 121.89508 20417 ft 384 kts 167°
2026-04-26 04:54 7.77094 121.89999 19980 ft 382 kts 167°
2026-04-26 04:54 7.74472 121.90485 19549 ft 381 kts 167°
2026-04-26 04:54 7.71847 121.90970 19106 ft 380 kts 167°
2026-04-26 04:55 7.69240 121.91449 18674 ft 378 kts 167°
2026-04-26 04:55 7.66664 121.91923 18242 ft 376 kts 167°
2026-04-26 04:55 7.64061 121.92400 17800 ft 374 kts 167°
2026-04-26 04:55 7.61511 121.92870 17354 ft 373 kts 167°
2026-04-26 04:56 7.58930 121.93345 16913 ft 371 kts 167°
2026-04-26 04:56 7.56418 121.93806 16474 ft 369 kts 167°
2026-04-26 04:56 7.53872 121.94273 16020 ft 368 kts 167°
2026-04-26 04:56 7.51331 121.94740 15564 ft 367 kts 167°
2026-04-26 04:57 7.48823 121.95200 15113 ft 365 kts 167°
2026-04-26 04:57 7.46302 121.95664 14657 ft 364 kts 167°
2026-04-26 04:57 7.43809 121.96121 14216 ft 362 kts 167°
2026-04-26 04:57 7.41329 121.96575 13770 ft 361 kts 167°
2026-04-26 04:58 7.38863 121.97028 13331 ft 359 kts 167°
2026-04-26 04:58 7.36373 121.97485 12882 ft 358 kts 166°
2026-04-26 04:58 7.34001 121.98207 12408 ft 353 kts 152°
2026-04-26 04:58 7.31961 121.99530 11954 ft 348 kts 137°
2026-04-26 04:59 7.30169 122.01195 11506 ft 346 kts 134°
2026-04-26 04:59 7.28436 122.02872 11052 ft 345 kts 134°
2026-04-26 04:59 7.26695 122.04559 10608 ft 343 kts 134°
2026-04-26 04:59 7.24965 122.06226 10357 ft 334 kts 134°
2026-04-26 05:00 7.23312 122.07810 10228 ft 323 kts 134°
2026-04-26 05:00 7.21694 122.09358 10083 ft 312 kts 134°
2026-04-26 05:00 7.20144 122.10838 9847 ft 305 kts 134°
2026-04-26 05:00 7.18618 122.12297 9431 ft 295 kts 134°
2026-04-26 05:01 7.17157 122.13691 9021 ft 284 kts 134°
2026-04-26 05:01 7.15724 122.15060 8646 ft 283 kts 134°
2026-04-26 05:01 7.14294 122.16426 8283 ft 283 kts 134°
2026-04-26 05:01 7.12858 122.17796 7915 ft 283 kts 134°
2026-04-26 05:02 7.11424 122.19163 7546 ft 283 kts 134°
2026-04-26 05:02 7.09997 122.20524 7179 ft 284 kts 134°
2026-04-26 05:02 7.08547 122.21905 6800 ft 284 kts 134°
2026-04-26 05:02 7.07126 122.23261 6440 ft 284 kts 134°
2026-04-26 05:03 7.05677 122.24642 6077 ft 283 kts 134°
2026-04-26 05:03 7.04258 122.25996 5725 ft 283 kts 134°
2026-04-26 05:03 7.02819 122.27369 5442 ft 280 kts 134°
2026-04-26 05:03 7.01410 122.28715 5098 ft 279 kts 135°
2026-04-26 05:04 7.00009 122.30046 5015 ft 268 kts 135°
2026-04-26 05:04 6.98485 122.31046 4978 ft 258 kts 162°
2026-04-26 05:04 6.96737 122.31058 4779 ft 258 kts 197°
2026-04-26 05:04 6.95091 122.30306 4504 ft 257 kts 206°
2026-04-26 05:05 6.93479 122.29501 4210 ft 257 kts 205°
2026-04-26 05:05 6.91873 122.28695 3947 ft 256 kts 212°
2026-04-26 05:05 6.90718 122.27391 3744 ft 246 kts 250°
2026-04-26 05:05 6.90534 122.25746 3527 ft 231 kts 277°
2026-04-26 05:06 6.90755 122.24209 3380 ft 215 kts 280°
2026-04-26 05:06 6.90974 122.22770 3165 ft 199 kts 278°
2026-04-26 05:06 6.91136 122.21446 2891 ft 182 kts 276°
2026-04-26 05:06 6.91255 122.20224 2646 ft 170 kts 275°
2026-04-26 05:07 6.91349 122.19071 2411 ft 157 kts 275°
2026-04-26 05:07 6.91429 122.18019 2116 ft 149 kts 274°
2026-04-26 05:07 6.91503 122.16987 1910 ft 147 kts 274°
2026-04-26 05:07 6.91574 122.15955 1753 ft 148 kts 274°
2026-04-26 05:08 6.91645 122.14924 1565 ft 146 kts 274°
2026-04-26 05:08 6.91714 122.13908 1380 ft 146 kts 274°
2026-04-26 05:08 6.91784 122.12883 1191 ft 144 kts 274°
2026-04-26 05:08 6.91852 122.11880 1001 ft 143 kts 274°
2026-04-26 05:09 6.91919 122.10894 814 ft 142 kts 274°
2026-04-26 05:09 6.91988 122.09893 625 ft 141 kts 274°
2026-04-26 05:09 6.92057 122.08908 446 ft 140 kts 274°
2026-04-26 05:09 6.92123 122.07931 251 ft 139 kts 274°
2026-04-26 05:10 6.92178 122.06978 81 ft 137 kts 274°
2026-04-26 05:10 6.92230 122.06146 66 ft 80 kts 274°
2026-04-26 05:10 6.92255 122.05786 67 ft 42 kts 274°
2026-04-26 05:10 6.92269 122.05560 67 ft 14 kts 274°
2026-04-26 05:11 6.92261 122.05492 67 ft 0 kts 280°
2026-04-26 05:11 6.92269 122.05491 67 ft 1 kts 22°
2026-04-26 05:11 6.92273 122.05512 67 ft 6 kts 94°
2026-04-26 05:11 6.92269 122.05565 67 ft 10 kts 94°
2026-04-26 05:12 6.92262 122.05685 67 ft 20 kts 92°
2026-04-26 05:12 6.92254 122.05826 67 ft 19 kts 95°
2026-04-26 05:12 6.92242 122.05949 66 ft 10 kts 96°
2026-04-26 05:12 6.92195 122.06006 66 ft 11 kts 142°
2026-04-26 05:13 6.92148 122.06049 66 ft 6 kts 115°
2026-04-26 05:13 6.92142 122.06100 66 ft 8 kts 94°
2026-04-26 05:13 6.92140 122.06128 66 ft 3 kts 93°
2026-04-26 05:13 6.92134 122.06147 66 ft 3 kts 133°
2026-04-26 05:14 6.92108 122.06161 66 ft 4 kts 158°
2026-04-26 05:14 6.92079 122.06174 66 ft 3 kts 155°
2026-04-26 05:14 6.92058 122.06183 66 ft 1 kts 155°
2026-04-26 05:14 6.92055 122.06184 66 ft 0 kts 155°